Regional Weather Roundup
Issued by NWS

Home | Current Version | Previous Version | Graphics & Text | Print | Product List | Glossary On
Versions: 1 2 3 4 5 6 7 8 9 10 11 12 13 14 15 16 17 18 19 20 21 22 23 24 25 26 27 28 29 30 31 32 33 34 35 36 37 38 39 40 41 42 43 44 45 46 47 48 49 50
000
ASUS43 KLSX 131807
RWRMO

WEATHER SUMMARY FOR MISSOURI
NATIONAL WEATHER SERVICE SPRINGFIELD MO
100 PM CDT SUN JUL 13 2014

NOTE: "FAIR" INDICATES FEW OR NO CLOUDS BELOW 12,000 FEET WITH NO
       SIGNIFICANT WEATHER AND/OR OBSTRUCTIONS TO VISIBILITY.
       CURRENT SKY AND/OR WEATHER CONDITIONS ARE NOT AVAILABLE FOR
       CHILLICOTHE AND FARMINGTON.

MOZ001>031-035>038-043-044-053-054-131900-
...NORTHERN AND WESTERN MISSOURI...

CITY           SKY/WX    TMP DP  RH WIND       PRES   REMARKS
KANSAS CTY INT PTSUNNY   81  73  76 N8        30.03F
6HR MIN TEMP:  70; 6HR MAX TEMP:  82; 6HR PCP:  0.06;

KANSAS C DTWN  MOSUNNY   84  74  71 VRB7      30.01F HX  91
6HR MIN TEMP:  72; 6HR MAX TEMP:  84; 6HR PCP:  0.16;

LEE`S SUMMIT   PTSUNNY   83  72  69 NW9       30.02F
6HR MIN TEMP:  72; 6HR MAX TEMP:  84; 6HR PCP:  0.01;

ST JOSEPH      MOSUNNY   82  71  69 N6        30.04S
6HR MIN TEMP:  71; 6HR MAX TEMP:  83;

CHILLICOTHE      N/A     83  70  64 VRB5      30.02S
6HR MIN TEMP:  71; 6HR MAX TEMP:  84;

KIRKSVILLE     MOSUNNY   82  68  62 NE5       30.01F
6HR MIN TEMP:  71; 6HR MAX TEMP:  82;


$$
MOZ066>068-077>081-088>096-101>105-131900-
...SOUTHWEST MISSOURI...

CITY           SKY/WX    TMP DP  RH WIND       PRES   REMARKS
SPRINGFIELD    SUNNY     89  68  49 SW14      30.03F HX  93
6HR MIN TEMP:  74; 6HR MAX TEMP:  89;

JOPLIN         SUNNY     93  63  36 SW16G24   30.00F HX  94
6HR MIN TEMP:  77; 6HR MAX TEMP:  93;


$$
MOZ032>034-039>042-045>050-055>058-069>072-131900-
...CENTRAL MISSOURI...

CITY           SKY/WX    TMP DP  RH WIND       PRES   REMARKS
COLUMBIA       PTSUNNY   86  70  58 VRB3      30.02S HX  90
6HR MIN TEMP:  76; 6HR MAX TEMP:  86; 6HR PCP: TRACE;

JEFFERSON CITY PTSUNNY   83  70  64 CALM      30.00S
6HR MIN TEMP:  75; 6HR MAX TEMP:  85;

ROLLA          SUNNY     86  69  56 N10       30.02R HX  90
6HR MIN TEMP:  73; 6HR MAX TEMP:  88;

SEDALIA        PTSUNNY   82  72  71 CALM      30.02F
6HR MIN TEMP:  75; 6HR MAX TEMP:  82; 6HR PCP: TRACE;

WHITEMAN AFB   PTSUNNY   78  65  63 CALM      30.01F
OSAGE BEACH    MOSUNNY   84  70  61 N7        30.01S

$$
MOZ051-052-059>065-131900-
...EAST CENTRAL MISSOURI...

CITY           SKY/WX    TMP DP  RH WIND       PRES   REMARKS
ST LOUIS INTL  PTSUNNY   90  69  50 NW14      29.99S HX  94
6HR MIN TEMP:  81; 6HR MAX TEMP:  92;

SPIRIT OF STL  PTSUNNY   88  68  51 W8        29.98S HX  91
6HR MIN TEMP:  78; 6HR MAX TEMP:  89;

ST CHARLES     PTSUNNY   85  71  63 W8        29.98S HX  90
6HR MIN TEMP:  77; 6HR MAX TEMP:  86;


$$
MOZ072>076-082>087-097>100-106>115-131900-
...SOUTH CENTRAL AND SOUTHEAST MISSOURI...

CITY           SKY/WX    TMP DP  RH WIND       PRES   REMARKS
CAPE GIRARDEAU MOSUNNY   90  74  59 SW12      29.99F HX  99
6HR MIN TEMP:  76; 6HR MAX TEMP:  90;

FARMINGTON     SUNNY     90  70  51 W6        30.02F HX  95
6HR MIN TEMP:  73; 6HR MAX TEMP:  90;

POPLAR BLUFF   SUNNY     89  73  59 SW12      30.01F HX  97
6HR MIN TEMP:  75; 6HR MAX TEMP:  90;

WEST PLAINS    SUNNY     86  70  58 SW9       30.07F HX  90
6HR MIN TEMP:  73; 6HR MAX TEMP:  87;


$$



USA.gov is the U.S. government's official web portal to all federal, state and local government web resources and services.